Time,TemperatureF,DewpointF,PressureIn,WindDirection,WindDirectionDegrees,WindSpeedMPH,WindSpeedGustMPH,Humidity,HourlyPrecipIn,Conditions,Clouds,dailyrainin,SoftwareType,DateUTC
2013-03-03 00:32:00,14.0,8.0,-100.00,NNE,26,3.0,7.0,77,-99.99,,,0.00,,2013-03-03 09:32:00,
2013-03-03 00:42:00,14.0,8.0,-100.00,NNE,26,3.0,7.0,77,-99.99,,,0.00,,2013-03-03 09:42:00,
2013-03-03 00:52:00,14.0,8.0,-100.00,NNE,26,3.0,7.0,77,-99.99,,,0.00,,2013-03-03 09:52:00,
2013-03-03 01:32:00,14.0,8.0,-100.00,NNE,19,3.0,8.0,76,-99.99,,,0.00,,2013-03-03 10:32:00,
2013-03-03 01:42:00,14.0,8.0,-100.00,NNE,19,3.0,8.0,76,-99.99,,,0.00,,2013-03-03 10:42:00,
2013-03-03 01:52:00,14.0,8.0,-100.00,NNE,19,3.0,8.0,76,-99.99,,,0.00,,2013-03-03 10:52:00,
2013-03-03 02:00:00,15.0,9.0,-100.00,NNE,12,4.0,7.0,76,-99.99,,,0.00,,2013-03-03 11:00:00,
2013-03-03 02:32:00,15.0,9.0,-100.00,NNE,12,4.0,7.0,76,-99.99,,,0.00,,2013-03-03 11:32:00,
2013-03-03 02:42:00,15.0,9.0,-100.00,NNE,12,4.0,7.0,76,-99.99,,,0.00,,2013-03-03 11:42:00,
2013-03-03 02:52:00,15.0,9.0,-100.00,NNE,12,4.0,7.0,76,-99.99,,,0.00,,2013-03-03 11:52:00,
2013-03-03 03:32:00,16.0,10.0,-100.00,North,7,4.0,7.0,75,-99.99,,,0.00,,2013-03-03 12:32:00,
2013-03-03 03:43:00,16.0,10.0,-100.00,North,7,4.0,7.0,75,-99.99,,,0.00,,2013-03-03 12:43:00,
2013-03-03 03:52:00,16.0,10.0,-100.00,North,7,4.0,7.0,75,-99.99,,,0.00,,2013-03-03 12:52:00,
2013-03-03 04:00:00,16.0,9.0,-100.00,NNE,22,4.0,8.0,74,-99.99,,,0.00,,2013-03-03 13:00:00,
2013-03-03 04:32:00,16.0,9.0,-100.00,NNE,22,4.0,8.0,74,-99.99,,,0.00,,2013-03-03 13:32:00,
2013-03-03 04:42:00,16.0,9.0,-100.00,NNE,22,4.0,8.0,74,-99.99,,,0.00,,2013-03-03 13:42:00,
2013-03-03 04:52:00,16.0,9.0,-100.00,NNE,22,4.0,8.0,74,-99.99,,,0.00,,2013-03-03 13:52:00,
2013-03-03 05:32:00,16.0,9.0,-100.00,NNE,31,4.0,8.0,74,-99.99,,,0.00,,2013-03-03 14:32:00,
2013-03-03 05:42:00,16.0,9.0,-100.00,NNE,31,4.0,8.0,74,-99.99,,,0.00,,2013-03-03 14:42:00,
2013-03-03 05:52:00,16.0,9.0,-100.00,NNE,31,4.0,8.0,74,-99.99,,,0.00,,2013-03-03 14:52:00,
2013-03-03 06:32:00,16.0,9.0,-100.00,NE,37,4.0,7.0,74,-99.99,,,-99.99,,2013-03-03 15:32:00,
2013-03-03 06:42:00,16.0,9.0,-100.00,NE,37,4.0,7.0,74,-99.99,,,-99.99,,2013-03-03 15:42:00,
2013-03-03 06:52:00,16.0,9.0,-100.00,NE,37,4.0,7.0,74,-99.99,,,-99.99,,2013-03-03 15:52:00,
2013-03-03 07:00:00,14.0,8.0,-100.00,NE,41,4.0,8.0,78,-99.99,,,0.00,,2013-03-03 16:00:00,
2013-03-03 07:32:00,14.0,8.0,-100.00,NE,41,4.0,8.0,78,-99.99,,,0.00,,2013-03-03 16:32:00,
2013-03-03 07:42:00,14.0,8.0,-100.00,NE,41,4.0,8.0,78,-99.99,,,0.00,,2013-03-03 16:42:00,
2013-03-03 07:52:00,14.0,8.0,-100.00,NE,41,4.0,8.0,78,-99.99,,,0.00,,2013-03-03 16:52:00,
2013-03-03 08:32:00,16.0,9.0,-100.00,NE,47,5.0,11.0,73,-99.99,,,0.00,,2013-03-03 17:32:00,
2013-03-03 08:42:00,16.0,9.0,-100.00,NE,47,5.0,11.0,73,-99.99,,,0.00,,2013-03-03 17:42:00,
2013-03-03 08:52:00,16.0,9.0,-100.00,NE,47,5.0,11.0,73,-99.99,,,0.00,,2013-03-03 17:52:00,
2013-03-03 09:32:00,18.0,10.0,-100.00,NE,49,4.0,10.0,69,-99.99,,,0.00,,2013-03-03 18:32:00,
2013-03-03 09:42:00,18.0,10.0,-100.00,NE,49,4.0,10.0,69,-99.99,,,0.00,,2013-03-03 18:42:00,
2013-03-03 09:52:00,18.0,10.0,-100.00,NE,49,4.0,10.0,69,-99.99,,,0.00,,2013-03-03 18:52:00,
2013-03-03 10:32:00,23.0,11.0,-100.00,ENE,65,4.0,9.0,59,-99.99,,,0.00,,2013-03-03 19:32:00,
2013-03-03 11:32:00,28.0,12.0,-100.00,ENE,68,5.0,10.0,50,-99.99,,,0.00,,2013-03-03 20:32:00,
2013-03-03 12:32:00,30.0,12.0,-100.00,East,101,4.0,8.0,46,-99.99,,,0.01,,2013-03-03 21:32:00,
2013-03-03 13:00:00,28.0,12.0,-100.00,East,91,4.0,9.0,50,-99.99,,,0.04,,2013-03-03 22:00:00,
2013-03-03 13:32:00,28.0,12.0,-100.00,East,91,4.0,9.0,50,-99.99,,,0.04,,2013-03-03 22:32:00,
2013-03-03 13:42:00,28.0,12.0,-100.00,East,91,4.0,9.0,50,-99.99,,,0.04,,2013-03-03 22:42:00,
2013-03-03 13:52:00,28.0,12.0,-100.00,East,91,4.0,9.0,50,-99.99,,,0.04,,2013-03-03 22:52:00,
2013-03-03 14:00:00,28.0,11.0,-100.00,ENE,68,5.0,10.0,48,-99.99,,,0.06,,2013-03-03 23:00:00,
2013-03-03 14:32:00,28.0,11.0,-100.00,ENE,68,5.0,10.0,48,-99.99,,,0.06,,2013-03-03 23:32:00,
2013-03-03 14:42:00,28.0,11.0,-100.00,ENE,68,5.0,10.0,48,-99.99,,,0.06,,2013-03-03 23:42:00,
2013-03-03 14:52:00,28.0,11.0,-100.00,ENE,68,5.0,10.0,48,-99.99,,,0.06,,2013-03-03 23:52:00,
2013-03-03 15:00:00,26.0,10.0,-100.00,ENE,71,5.0,9.0,51,0.01,,,0.07,,2013-03-04 00:00:00,
2013-03-03 15:32:00,26.0,10.0,-100.00,ENE,71,5.0,9.0,51,0.01,,,0.07,,2013-03-04 00:32:00,
2013-03-03 15:42:00,26.0,10.0,-100.00,ENE,71,5.0,9.0,51,0.01,,,0.07,,2013-03-04 00:42:00,
2013-03-03 15:52:00,26.0,10.0,-100.00,ENE,71,5.0,9.0,51,0.01,,,0.07,,2013-03-04 00:52:00,
2013-03-03 16:00:00,26.0,10.0,-100.00,ENE,75,4.0,9.0,51,0.00,,,0.07,,2013-03-04 01:00:00,
2013-03-03 16:32:00,26.0,10.0,-100.00,ENE,75,4.0,9.0,51,0.00,,,0.07,,2013-03-04 01:32:00,
2013-03-03 16:42:00,26.0,10.0,-100.00,ENE,75,4.0,9.0,51,0.00,,,0.07,,2013-03-04 01:42:00,
2013-03-03 16:52:00,26.0,10.0,-100.00,ENE,75,4.0,9.0,51,0.00,,,0.07,,2013-03-04 01:52:00,
2013-03-03 17:00:00,24.0,9.0,-100.00,ENE,61,5.0,10.0,52,0.00,,,0.07,,2013-03-04 02:00:00,
2013-03-03 17:32:00,24.0,9.0,-100.00,ENE,61,5.0,10.0,52,0.00,,,0.07,,2013-03-04 02:32:00,
2013-03-03 17:42:00,24.0,9.0,-100.00,ENE,61,5.0,10.0,52,0.00,,,0.07,,2013-03-04 02:42:00,
2013-03-03 17:52:00,24.0,9.0,-100.00,ENE,61,5.0,10.0,52,0.00,,,0.07,,2013-03-04 02:52:00,
2013-03-03 18:00:00,20.0,7.0,-100.00,ENE,59,5.0,9.0,57,-99.99,,,0.07,,2013-03-04 03:00:00,
2013-03-03 18:32:00,20.0,7.0,-100.00,ENE,59,5.0,9.0,57,-99.99,,,0.07,,2013-03-04 03:32:00,
2013-03-03 18:42:00,20.0,7.0,-100.00,ENE,59,5.0,9.0,57,-99.99,,,0.07,,2013-03-04 03:42:00,
2013-03-03 18:52:00,20.0,7.0,-100.00,ENE,59,5.0,9.0,57,-99.99,,,0.07,,2013-03-04 03:52:00,
2013-03-03 19:00:00,19.0,7.0,-100.00,NE,49,5.0,9.0,59,0.00,,,0.07,,2013-03-04 04:00:00,
2013-03-03 19:32:00,19.0,7.0,-100.00,NE,49,5.0,9.0,59,0.00,,,0.07,,2013-03-04 04:32:00,
2013-03-03 19:42:00,19.0,7.0,-100.00,NE,49,5.0,9.0,59,0.00,,,0.07,,2013-03-04 04:42:00,
2013-03-03 19:52:00,19.0,7.0,-100.00,NE,49,5.0,9.0,59,0.00,,,0.07,,2013-03-04 04:52:00,
2013-03-03 20:00:00,19.0,7.0,-100.00,NE,54,5.0,9.0,58,0.00,,,0.07,,2013-03-04 05:00:00,
2013-03-03 20:32:00,19.0,7.0,-100.00,NE,54,5.0,9.0,58,0.00,,,0.07,,2013-03-04 05:32:00,
2013-03-03 20:42:00,19.0,7.0,-100.00,NE,54,5.0,9.0,58,0.00,,,0.07,,2013-03-04 05:42:00,
2013-03-03 20:52:00,19.0,7.0,-100.00,NE,54,5.0,9.0,58,0.00,,,0.07,,2013-03-04 05:52:00,
2013-03-03 21:00:00,19.0,6.0,-100.00,NE,54,6.0,10.0,57,-99.99,,,0.07,,2013-03-04 06:00:00,
2013-03-03 21:32:00,19.0,6.0,-100.00,NE,54,6.0,10.0,57,-99.99,,,0.07,,2013-03-04 06:32:00,
2013-03-03 21:42:00,19.0,6.0,-100.00,NE,54,6.0,10.0,57,-99.99,,,0.07,,2013-03-04 06:42:00,
2013-03-03 21:52:00,19.0,6.0,-100.00,NE,54,6.0,10.0,57,-99.99,,,0.07,,2013-03-04 06:52:00,
2013-03-03 22:00:00,19.0,6.0,-100.00,ENE,63,5.0,9.0,57,0.00,,,0.07,,2013-03-04 07:00:00,
2013-03-03 22:32:00,19.0,6.0,-100.00,ENE,63,5.0,9.0,57,0.00,,,0.07,,2013-03-04 07:32:00,
2013-03-03 22:42:00,19.0,6.0,-100.00,ENE,63,5.0,9.0,57,0.00,,,0.07,,2013-03-04 07:42:00,
2013-03-03 22:52:00,19.0,6.0,-100.00,ENE,63,5.0,9.0,57,0.00,,,0.07,,2013-03-04 07:52:00,
2013-03-03 23:00:00,19.0,6.0,-100.00,ENE,64,5.0,9.0,57,0.00,,,0.07,,2013-03-04 08:00:00,
2013-03-03 23:32:00,19.0,6.0,-100.00,ENE,64,5.0,9.0,57,0.00,,,0.07,,2013-03-04 08:32:00,
2013-03-03 23:42:00,19.0,6.0,-100.00,ENE,64,5.0,9.0,57,0.00,,,0.07,,2013-03-04 08:42:00,
2013-03-03 23:52:00,19.0,6.0,-100.00,ENE,64,5.0,9.0,57,0.00,,,0.07,,2013-03-04 08:52:00,